Orbital Elements at Epoch 2459200.5 (2020-Dec-17.0) TDB
Reference: JPL 18 (heliocentric ecliptic J2000)
Element | Value | Uncertainty (1-sigma) | Units |
e | .06027352773635754 | 3.6488e-08 | |
a | 2.28458980744871 | 9.4486e-09 | au |
q | 2.14688952032325 | 8.2712e-08 | au |
i | 5.961274407396135 | 5.2546e-06 | deg |
node | 202.9383436625254 | 3.7731e-05 | deg |
peri | 241.7554835194139 | 5.9715e-05 | deg |
M | 81.86849930036854 | 4.4371e-05 | deg |
tp | 2458913.669646594361 (2020-Mar-05.16964659) | 0.00015574 | TDB |
period | 1261.277879873939 3.45 | 7.8246e-06 2.142e-08 | d yr |
n | .2854248106182444 | 1.7707e-09 | deg/d |
Q | 2.422290094574169 | 1.0018e-08 | au |
|
| | Orbit Determination Parameters
Additional Information
|